Time,TemperatureF,DewpointF,PressureIn,WindDirection,WindDirectionDegrees,WindSpeedMPH,WindSpeedGustMPH,Humidity,HourlyPrecipIn,Conditions,Clouds,dailyrainin,SoftwareType,DateUTC
2013-12-25 00:12:00,32.0,29.0,30.39,NE,50,1.0,3.0,88,0.00,,,0.00,,2013-12-25 06:12:00,
2013-12-25 00:22:00,32.0,29.0,30.39,ENE,59,2.0,5.0,88,0.00,,,0.00,,2013-12-25 06:22:00,
2013-12-25 00:42:00,32.0,29.0,30.38,ENE,61,1.0,3.0,88,0.00,,,0.00,,2013-12-25 06:42:00,
2013-12-25 00:52:00,32.0,29.0,30.37,ENE,63,2.0,4.0,88,0.00,,,0.00,,2013-12-25 06:52:00,
2013-12-25 01:12:00,32.0,28.0,30.38,ENE,74,1.0,4.0,86,0.00,,,0.00,,2013-12-25 07:12:00,
2013-12-25 01:22:00,32.0,28.0,30.39,ENE,74,0.0,2.0,86,0.00,,,0.00,,2013-12-25 07:22:00,
2013-12-25 01:42:00,32.0,28.0,30.39,ENE,74,0.0,2.0,86,0.00,,,0.00,,2013-12-25 07:42:00,
2013-12-25 01:52:00,32.0,28.0,30.39,ENE,74,0.0,0.0,86,0.00,,,0.00,,2013-12-25 07:52:00,
2013-12-25 02:11:00,32.0,29.0,30.39,ENE,74,1.0,2.0,87,0.00,,,0.00,,2013-12-25 08:11:00,
2013-12-25 02:21:00,32.0,29.0,30.39,ENE,74,2.0,3.0,88,0.00,,,0.00,,2013-12-25 08:21:00,
2013-12-25 02:42:00,32.0,29.0,30.39,NE,34,2.0,3.0,89,0.00,,,0.00,,2013-12-25 08:42:00,
2013-12-25 02:52:00,32.0,29.0,30.40,North,355,2.0,4.0,90,0.00,,,0.00,,2013-12-25 08:52:00,
2013-12-25 03:11:00,31.0,28.0,30.40,North,350,2.0,3.0,90,0.00,,,0.00,,2013-12-25 09:11:00,
2013-12-25 03:21:00,31.0,28.0,30.40,NNE,28,1.0,3.0,90,0.00,,,0.00,,2013-12-25 09:21:00,
2013-12-25 03:42:00,30.0,27.0,30.40,NE,34,2.0,4.0,90,0.00,,,0.00,,2013-12-25 09:42:00,
2013-12-25 03:52:00,30.0,27.0,30.39,NE,34,1.0,3.0,90,0.00,,,0.00,,2013-12-25 09:52:00,
2013-12-25 04:11:00,30.0,27.0,30.39,NE,44,2.0,3.0,88,0.00,,,0.00,,2013-12-25 10:11:00,
2013-12-25 04:22:00,30.0,27.0,30.39,NE,45,0.0,2.0,87,0.00,,,0.00,,2013-12-25 10:22:00,
2013-12-25 04:43:00,31.0,27.0,30.38,NE,53,0.0,3.0,86,0.00,,,0.00,,2013-12-25 10:43:00,
2013-12-25 04:53:00,31.0,27.0,30.38,ENE,57,1.0,2.0,86,0.00,,,0.00,,2013-12-25 10:53:00,
2013-12-25 05:12:00,31.0,27.0,30.38,East,93,1.0,5.0,85,0.00,,,0.00,,2013-12-25 11:12:00,
2013-12-25 05:22:00,31.0,27.0,30.38,SE,138,0.0,4.0,85,0.00,,,0.00,,2013-12-25 11:22:00,
2013-12-25 05:42:00,31.0,27.0,30.38,SE,138,1.0,3.0,85,0.00,,,0.00,,2013-12-25 11:42:00,
2013-12-25 05:52:00,31.0,27.0,30.39,ESE,123,0.0,3.0,85,0.00,,,0.00,,2013-12-25 11:52:00,
2013-12-25 06:11:00,30.0,26.0,30.39,ESE,123,1.0,2.0,86,0.00,,,0.00,,2013-12-25 12:11:00,
2013-12-25 06:22:00,30.0,26.0,30.39,ESE,123,1.0,2.0,85,0.00,,,0.00,,2013-12-25 12:22:00,
2013-12-25 06:42:00,29.0,26.0,30.39,ENE,72,0.0,3.0,87,0.00,,,0.00,,2013-12-25 12:42:00,
2013-12-25 06:52:00,29.0,26.0,30.39,ENE,72,0.0,1.0,87,0.00,,,0.00,,2013-12-25 12:52:00,
2013-12-25 07:12:00,29.0,26.0,30.39,ENE,72,0.0,1.0,87,0.00,,,0.00,,2013-12-25 13:12:00,
2013-12-25 07:21:00,29.0,26.0,30.38,SE,134,3.0,4.0,87,0.00,,,0.00,,2013-12-25 13:21:00,
2013-12-25 07:42:00,29.0,26.0,30.39,SE,128,0.0,5.0,87,0.00,,,0.00,,2013-12-25 13:42:00,
2013-12-25 07:52:00,29.0,26.0,30.40,SE,129,0.0,3.0,87,0.00,,,0.00,,2013-12-25 13:52:00,
2013-12-25 08:12:00,29.0,26.0,30.41,SE,129,0.0,2.0,88,0.00,,,0.00,,2013-12-25 14:12:00,
2013-12-25 08:22:00,29.0,26.0,30.41,SE,129,0.0,0.0,89,0.00,,,0.00,,2013-12-25 14:22:00,
2013-12-25 08:42:00,30.0,27.0,30.42,SE,129,0.0,0.0,90,0.00,,,0.00,,2013-12-25 14:42:00,
2013-12-25 08:52:00,31.0,28.0,30.42,SE,129,0.0,1.0,90,0.00,,,0.00,,2013-12-25 14:52:00,
2013-12-25 09:11:00,33.0,30.0,30.42,ENE,75,0.0,3.0,87,0.00,,,0.00,,2013-12-25 15:11:00,
2013-12-25 09:22:00,34.0,29.0,30.42,ENE,75,0.0,0.0,82,0.00,,,0.00,,2013-12-25 15:22:00,
2013-12-25 09:43:00,35.0,28.0,30.43,SSE,150,4.0,7.0,75,0.00,,,0.00,,2013-12-25 15:43:00,
2013-12-25 09:53:00,35.0,28.0,30.43,SE,146,5.0,8.0,74,0.00,,,0.00,,2013-12-25 15:53:00,
2013-12-25 10:13:00,35.0,27.0,30.43,SE,135,5.0,8.0,71,0.00,,,0.00,,2013-12-25 16:13:00,
2013-12-25 10:23:00,36.0,29.0,30.43,SE,136,2.0,6.0,74,0.00,,,0.00,,2013-12-25 16:23:00,
2013-12-25 10:42:00,36.0,29.0,30.42,SE,126,2.0,5.0,75,0.00,,,0.00,,2013-12-25 16:42:00,
2013-12-25 10:53:00,37.0,29.0,30.42,SSE,151,3.0,6.0,73,0.00,,,0.00,,2013-12-25 16:53:00,
2013-12-25 11:12:00,37.0,28.0,30.42,SE,136,1.0,5.0,71,0.00,,,0.00,,2013-12-25 17:12:00,
2013-12-25 11:22:00,39.0,29.0,30.42,SE,144,3.0,6.0,68,0.00,,,0.00,,2013-12-25 17:22:00,
2013-12-25 11:42:00,39.0,30.0,30.42,SSE,162,2.0,5.0,70,0.00,,,0.00,,2013-12-25 17:42:00,
2013-12-25 11:52:00,41.0,32.0,30.41,East,86,2.0,5.0,69,0.00,,,0.00,,2013-12-25 17:52:00,
2013-12-25 12:12:00,42.0,32.0,30.40,SE,127,0.0,5.0,68,0.00,,,0.00,,2013-12-25 18:12:00,
2013-12-25 12:22:00,41.0,31.0,30.40,ESE,105,0.0,3.0,68,0.00,,,0.00,,2013-12-25 18:22:00,
2013-12-25 12:42:00,41.0,31.0,30.38,SSE,163,1.0,5.0,68,0.00,,,0.00,,2013-12-25 18:42:00,
2013-12-25 12:52:00,42.0,31.0,30.37,South,186,1.0,5.0,65,0.00,,,0.00,,2013-12-25 18:52:00,
2013-12-25 13:12:00,43.0,30.0,30.37,SSW,199,2.0,7.0,61,0.00,,,0.00,,2013-12-25 19:12:00,
2013-12-25 13:22:00,43.0,30.0,30.36,SSE,163,0.0,4.0,61,0.00,,,0.00,,2013-12-25 19:22:00,
2013-12-25 13:42:00,44.0,31.0,30.35,SSE,162,1.0,6.0,61,0.00,,,0.00,,2013-12-25 19:42:00,
2013-12-25 13:52:00,45.0,32.0,30.35,SSE,151,0.0,4.0,59,0.00,,,0.00,,2013-12-25 19:52:00,
2013-12-25 14:11:00,45.0,32.0,30.35,SSE,152,0.0,4.0,60,0.00,,,0.00,,2013-12-25 20:11:00,
2013-12-25 14:21:00,46.0,32.0,30.33,SE,131,3.0,5.0,57,0.00,,,0.00,,2013-12-25 20:21:00,
2013-12-25 14:42:00,45.0,33.0,30.32,East,98,4.0,7.0,63,0.00,,,0.00,,2013-12-25 20:42:00,
2013-12-25 14:52:00,46.0,35.0,30.30,SE,136,4.0,8.0,66,0.00,,,0.00,,2013-12-25 20:52:00,
2013-12-25 15:12:00,46.0,33.0,30.32,East,101,1.0,9.0,61,0.00,,,0.00,,2013-12-25 21:12:00,
2013-12-25 15:22:00,46.0,32.0,30.32,ESE,115,0.0,4.0,58,0.00,,,0.00,,2013-12-25 21:22:00,
2013-12-25 15:53:00,46.0,33.0,30.32,ESE,107,0.0,2.0,61,0.00,,,0.00,,2013-12-25 21:53:00,
2013-12-25 16:23:00,47.0,35.0,30.32,ESE,107,0.0,1.0,62,0.00,,,0.00,,2013-12-25 22:23:00,
2013-12-25 16:43:00,47.0,35.0,30.32,ESE,107,0.0,2.0,62,0.00,,,0.00,,2013-12-25 22:43:00,
2013-12-25 16:52:00,46.0,34.0,30.33,ESE,107,0.0,1.0,63,0.00,,,0.00,,2013-12-25 22:52:00,
2013-12-25 17:22:00,46.0,33.0,30.33,ESE,107,0.0,1.0,60,0.00,,,0.00,,2013-12-25 23:22:00,
2013-12-25 17:43:00,45.0,35.0,30.33,ESE,107,0.0,1.0,68,0.00,,,0.00,,2013-12-25 23:43:00,
2013-12-25 17:52:00,44.0,36.0,30.33,ESE,107,0.0,2.0,72,0.00,,,0.00,,2013-12-25 23:52:00,
2013-12-25 18:11:00,43.0,37.0,30.33,ESE,107,0.0,1.0,78,0.00,,,0.00,,2013-12-26 00:11:00,
2013-12-25 18:22:00,42.0,35.0,30.34,ESE,107,1.0,2.0,76,0.00,,,0.00,,2013-12-26 00:22:00,
2013-12-25 18:42:00,42.0,33.0,30.34,ESE,107,0.0,2.0,70,0.00,,,0.00,,2013-12-26 00:42:00,
2013-12-25 18:52:00,42.0,33.0,30.34,ESE,107,0.0,0.0,71,0.00,,,0.00,,2013-12-26 00:52:00,
2013-12-25 19:12:00,41.0,34.0,30.34,ESE,107,0.0,1.0,76,0.00,,,0.00,,2013-12-26 01:12:00,
2013-12-25 19:21:00,39.0,33.0,30.35,ESE,107,0.0,0.0,80,0.00,,,0.00,,2013-12-26 01:21:00,
2013-12-25 19:42:00,39.0,34.0,30.35,ESE,107,0.0,0.0,81,0.00,,,0.00,,2013-12-26 01:42:00,
2013-12-25 19:52:00,39.0,32.0,30.35,ESE,107,0.0,0.0,77,0.00,,,0.00,,2013-12-26 01:52:00,
2013-12-25 20:11:00,39.0,33.0,30.35,ESE,107,0.0,0.0,78,0.00,,,0.00,,2013-12-26 02:11:00,
2013-12-25 20:21:00,40.0,34.0,30.35,ESE,107,0.0,2.0,80,0.00,,,0.00,,2013-12-26 02:21:00,
2013-12-25 21:11:00,39.0,34.0,30.36,ESE,107,0.0,0.0,82,0.00,,,0.00,,2013-12-26 03:11:00,
2013-12-25 21:22:00,38.0,34.0,30.36,ESE,107,0.0,0.0,85,0.00,,,0.00,,2013-12-26 03:22:00,
2013-12-25 21:53:00,37.0,34.0,30.36,ESE,107,0.0,0.0,87,0.00,,,0.00,,2013-12-26 03:53:00,
2013-12-25 22:13:00,37.0,34.0,30.37,ESE,107,0.0,0.0,88,0.00,,,0.00,,2013-12-26 04:13:00,
2013-12-25 22:23:00,37.0,34.0,30.37,ESE,107,0.0,0.0,90,0.00,,,0.00,,2013-12-26 04:23:00,
2013-12-25 22:52:00,37.0,35.0,30.37,ESE,107,0.0,0.0,91,0.00,,,0.00,,2013-12-26 04:52:00,
2013-12-25 23:12:00,37.0,34.0,30.37,ESE,107,0.0,0.0,90,0.00,,,0.00,,2013-12-26 05:12:00,
2013-12-25 23:22:00,36.0,33.0,30.36,ESE,107,0.0,0.0,90,0.00,,,0.00,,2013-12-26 05:22:00,
2013-12-25 23:42:00,36.0,33.0,30.36,ESE,107,0.0,0.0,90,0.00,,,0.00,,2013-12-26 05:42:00,
2013-12-25 23:53:00,35.0,33.0,30.35,ESE,107,0.0,0.0,91,0.00,,,0.00,,2013-12-26 05:53:00,